N1MCJ Weather Reports


time (UTC)temp
C
wind
direction
speed
KPH
gust
KPH
rain 1hr
cm
rain 24hr
cm
rain mn
cm
humidity
%
barometer
mb
20260510224158 18 48 0.0 0.0 0.00 0.00 0.00 83 1004.6
20260510222656 18 45 0.0 0.0 0.00 0.00 0.00 83 1004.6
20260510221151 19 43 0.0 0.0 0.00 0.00 0.00 79 1004.7
20260510215646 18 44 0.0 0.0 0.00 0.00 0.00 82 1004.5
20260510214142 18 9 3.2 4.8 0.00 0.00 0.00 80 1004.3
20260510212638 18 310 3.2 3.2 0.00 0.00 0.00 81 1004.4
20260510211138 17 56 0.0 1.6 0.00 0.00 0.00 81 1004.1
20260510205635 17 4 1.6 3.2 0.00 0.00 0.00 81 1004.1
20260510204130 18 51 0.0 1.6 0.00 0.00 0.00 81 1004.1
20260510202630 17 97 1.6 3.2 0.00 0.00 0.00 80 1004.0
20260510201126 17 105 3.2 3.2 0.00 0.00 0.00 81 1003.9
20260510195623 16 87 1.6 1.6 0.00 0.00 0.00 85 1004.1
20260510194122 16 39 0.0 1.6 0.00 0.00 0.00 86 1004.1
20260510192619 16 116 1.6 3.2 0.00 0.00 0.00 86 1004.2
20260510191119 16 130 3.2 3.2 0.00 0.00 0.00 85 1004.3
20260510185616 17 76 1.6 1.6 0.00 0.00 0.00 83 1004.5
20260510184113 17 65 0.0 1.6 0.00 0.00 0.00 81 1004.6
20260510182612 18 129 3.2 3.2 0.00 0.00 0.00 79 1004.0
20260510181107 18 36 1.6 3.2 0.00 0.00 0.00 77 1004.4
20260510175602 18 210 4.8 4.8 0.00 0.00 0.00 80 1004.5
20260510174059 17 89 1.6 3.2 0.00 0.00 0.00 83 1004.4
20260510172559 16 41 3.2 3.2 0.00 0.00 0.00 85 1004.5
20260510171056 16 92 3.2 3.2 0.00 0.00 0.00 86 1004.3
20260510165550 16 97 1.6 1.6 0.00 0.00 0.00 87 1004.5
20260510164046 16 136 3.2 3.2 0.00 0.00 0.00 85 1004.6
20260510162544 16 82 1.6 1.6 0.00 0.00 0.00 86 1004.9
20260510161040 15 235 1.6 3.2 0.00 0.00 0.00 88 1004.8
20260510155539 15 170 6.4 8.0 0.00 0.00 0.00 91 1004.6
20260510154038 13 15 4.8 8.0 0.00 0.00 0.00 95 1005.1
20260510152533 13 36 1.6 1.6 0.00 0.00 0.00 99 1005.2
20260510151030 12 66 0.0 0.0 0.00 0.00 0.00 99 1005.2
20260510145529 12 42 0.0 1.6 0.00 0.00 0.00 99 1005.1
20260510144024 11 42 0.0 1.6 0.00 0.00 0.00 99 1005.1
20260510142524 11 67 0.0 0.0 0.00 0.00 0.00 99 1004.9
20260510141021 11 68 0.0 0.0 0.00 0.00 0.00 99 1004.9
20260510135518 11 71 0.0 0.0 0.00 0.00 0.00 99 1004.8
20260510134015 11 66 0.0 1.6 0.00 0.00 0.00 99 1004.7
20260510132515 12 70 0.0 0.0 0.00 0.00 0.00 99 1004.7
20260510131012 12 64 0.0 0.0 0.00 0.00 0.00 99 1004.6
20260510125507 11 65 0.0 0.0 0.00 0.00 0.00 99 1004.5
20260510124003 11 54 0.0 0.0 0.00 0.00 0.00 99 1004.3
20260510122502 11 69 0.0 0.0 0.00 0.00 0.00 99 1004.3
20260510120958 11 64 0.0 0.0 0.00 0.00 0.00 99 1003.7
20260510115454 11 65 0.0 0.0 0.00 0.00 0.00 99 1003.7
20260510113954 11 80 0.0 1.6 0.00 0.00 0.00 99 1003.6
20260510112450 10 71 0.0 0.0 0.00 0.00 0.00 99 1003.5
20260510110950 10 72 0.0 0.0 0.00 0.00 0.00 99 1003.9
20260510105450 10 72 0.0 0.0 0.00 0.00 0.00 99 1003.5
20260510103945 10 75 0.0 0.0 0.00 0.00 0.00 99 1003.7
20260510102445 10 70 0.0 0.0 0.00 0.00 0.00 99 1003.4
20260510100944 10 71 0.0 0.0 0.00 0.00 0.00 99 1003.9
20260510095444 10 76 0.0 0.0 0.00 0.00 0.00 99 1003.5
20260510093940 10 56 0.0 0.0 0.00 0.00 0.00 99 1003.7
20260510092436 10 51 0.0 0.0 0.00 0.00 0.00 99 1003.5
20260510090936 10 65 0.0 0.0 0.00 0.00 0.00 99 1003.6
20260510085435 10 52 0.0 0.0 0.00 0.00 0.00 99 1004.1
20260510083930 10 51 0.0 0.0 0.00 0.00 0.00 99 1003.7
20260510082426 10 41 1.6 3.2 0.00 0.00 0.00 99 1003.7
20260510080923 10 68 0.0 0.0 0.00 0.00 0.00 99 1003.0
20260510075424 10 68 0.0 0.0 0.00 0.00 0.00 99 1002.6
20260510073919 10 68 0.0 0.0 0.00 0.00 0.00 99 1003.0
20260510072414 10 68 0.0 0.0 0.00 0.00 0.00 99 1003.1
20260510070910 10 68 0.0 0.0 0.00 0.00 0.00 99 1003.0
20260510065410 10 69 0.0 0.0 0.00 0.00 0.00 99 1002.9
20260510063906 10 70 0.0 0.0 0.00 0.00 0.00 99 1003.0
20260510062401 10 71 0.0 0.0 0.00 0.00 0.00 99 1002.7
20260510060902 11 68 0.0 0.0 0.00 0.00 0.00 99 1002.7
20260510055401 11 71 0.0 0.0 0.00 0.00 0.00 99 1002.6
20260510053856 11 62 0.0 0.0 0.00 0.00 0.00 99 1002.9
20260510052356 11 63 0.0 0.0 0.00 0.00 0.00 99 1002.9
20260510050852 11 64 0.0 0.0 0.00 0.00 0.00 99 1002.7
20260510045348 11 67 0.0 0.0 0.00 0.00 0.00 99 1003.1
20260510043844 11 67 0.0 0.0 0.00 0.00 0.00 99 1003.0
20260510042340 11 74 0.0 0.0 0.00 0.00 0.00 99 1002.7
20260510040837 11 83 0.0 0.0 0.00 0.00 0.00 99 1002.9
20260510035337 11 83 0.0 0.0 0.00 1.19 1.19 99 1002.4
20260510033833 11 83 0.0 0.0 0.00 1.19 1.19 99 1002.5
20260510032329 11 83 0.0 0.0 0.00 1.19 1.19 99 1002.4
20260510030826 11 83 0.0 0.0 0.00 1.19 1.19 99 1002.5
20260510025323 11 84 0.0 0.0 0.00 1.19 1.19 99 1002.7
20260510023819 11 71 0.0 0.0 0.00 1.19 1.19 99 1002.7
20260510022317 11 76 0.0 0.0 0.00 1.19 1.19 99 1002.9
20260510020816 11 68 0.0 0.0 0.00 1.19 1.19 99 1002.4
20260510015315 11 68 0.0 0.0 0.00 1.19 1.19 99 1002.7
20260510013815 11 68 0.0 0.0 0.00 1.19 1.19 99 1002.6
20260510012312 11 65 0.0 0.0 0.00 1.19 1.19 99 1002.3
20260510010811 11 75 0.0 0.0 0.00 1.19 1.19 99 1002.3
20260510005307 11 81 0.0 0.0 0.00 1.19 1.19 99 1002.3
20260510003805 11 66 0.0 0.0 0.00 1.19 1.19 99 1002.2
20260510002306 11 55 0.0 0.0 0.00 1.19 1.19 99 1002.1
20260510000800 11 48 0.0 0.0 0.00 1.19 1.19 99 1002.0
20260509235257 11 66 0.0 0.0 0.00 1.19 1.19 99 1002.0
20260509233754 11 65 0.0 0.0 0.00 1.19 1.19 99 1001.9
20260509232251 11 66 0.0 0.0 0.00 1.17 1.17 99 1002.0
20260509230747 12 71 0.0 0.0 0.30 1.17 1.17 99 1002.0
20260509225247 12 71 0.0 0.0 0.71 1.04 1.04 99 1002.4